New Delhi, India

6:14 PM IST on April 25, 2017 (GMT +0530)
Indira Gandhi International Airport

Weather History for VIDP - September, 2013

Change the Weather History Date:

Saturday, September 21, 2013

  Actual Average Record
Temperature  
Mean Temperature 83 °F -  
Max Temperature 91 °F 89 °F 102 °F (2007)
Min Temperature 75 °F 70 °F 71 °F (2008)
Cooling Degree Days 18    
Growing Degree Days 33 (Base 50)    
Moisture  
Dew Point 74 °F    
Average Humidity 84    
Maximum Humidity 100    
Minimum Humidity 55    
Precipitation  
Precipitation 0.00 in - - ()
Sea Level Pressure  
Sea Level Pressure 29.67 in    
Wind  
Wind Speed 7 mph ()    
Max Wind Speed 15 mph    
Max Gust Speed 20 mph    
Visibility 1.5 miles    
Events Rain , Thunderstorm    
Averages and records for this station are not official NWS values.
T = Trace of Precipitation, MM = Missing Value Source: Averaged Metar Reports

Daily Weather History Graph

Daily Weather History Graph

Search for Another Location

Airport or City:

Trip Planner

Search our weather history database for the weather conditions in past years. The results will help you decide how hot, cold, wet, or windy it might be!

Date:

Astronomy

Sep. 21, 2013 Rise Set
Actual Time 6:09 AM IST 6:19 PM IST
Civil Twilight 5:45 AM IST 6:42 PM IST
Nautical Twilight 5:18 AM IST 7:10 PM IST
Astronomical Twilight 4:50 AM IST 7:38 PM IST
Moon 7:27 PM IST (9/21) 7:46 AM IST (9/21)
Length of Visible Light 12h 57m
Length of Day
12h 10m
Waning Gibbous, 96% of the Moon is Illuminated
Sep 21
Waning Gibbous
Sep 27
Last Quarter
Oct 5
New
Oct 12
First Quarter
Oct 19
Full

Hourly Weather History & Observations

Time (IST) Temp. Heat Index Dew Point Humidity Pressure Visibility Wind Dir Wind Speed Gust Speed Precip Events Conditions
12:00 AM 78.8 °F - 75.2 °F 89% 29.68 in 1.9 mi ENE 6.9 mph - N/A   Mostly Cloudy
12:30 AM 78.8 °F - 75.2 °F 89% 29.68 in 1.9 mi East 6.9 mph - N/A   Mostly Cloudy
1:00 AM 78.8 °F - 75.2 °F 89% 29.65 in 1.9 mi ENE 8.1 mph - N/A   Mostly Cloudy
1:30 AM 78.8 °F - 75.2 °F 89% 29.65 in 1.9 mi ENE 6.9 mph - N/A   Mostly Cloudy
2:00 AM 78.8 °F - 75.2 °F 89% 29.65 in 1.9 mi NE 6.9 mph - N/A   Mostly Cloudy
2:30 AM 78.8 °F - 75.2 °F 89% 29.65 in 1.9 mi ENE 4.6 mph - N/A   Mostly Cloudy
3:00 AM 78.8 °F - 73.4 °F 83% 29.65 in 1.9 mi ENE 5.8 mph - N/A   Mostly Cloudy
3:30 AM 78.8 °F - 73.4 °F 83% 29.65 in 1.9 mi ENE 6.9 mph - N/A   Mostly Cloudy
4:00 AM 78.8 °F - 73.4 °F 83% 29.65 in 1.9 mi NE 5.8 mph - N/A   Mostly Cloudy
4:30 AM 78.8 °F - 73.4 °F 83% 29.65 in 2.2 mi ENE 6.9 mph - N/A   Mostly Cloudy
5:00 AM 80.6 °F 85.4 °F 73.4 °F 79% 29.65 in 2.2 mi ENE 6.9 mph - N/A   Mostly Cloudy
5:30 AM 80.6 °F 85.4 °F 73.4 °F 79% 29.65 in 2.2 mi ENE 6.9 mph - N/A   Mostly Cloudy
6:00 AM 80.6 °F 85.4 °F 73.4 °F 79% 29.68 in 2.2 mi ENE 6.9 mph - N/A   Mostly Cloudy
6:30 AM 80.6 °F 85.4 °F 73.4 °F 79% 29.68 in 2.2 mi ENE 6.9 mph - N/A   Mostly Cloudy
7:00 AM 80.6 °F 85.4 °F 73.4 °F 79% 29.68 in 2.2 mi ENE 6.9 mph - N/A Rain Light Rain
7:30 AM 78.8 °F - 73.4 °F 83% 29.68 in - ENE 6.9 mph - N/A   Mostly Cloudy
8:00 AM 78.8 °F - 73.4 °F 83% 29.68 in - NE 6.9 mph - N/A   Mostly Cloudy
8:30 AM 80.6 °F 85.4 °F 73.4 °F 79% 29.71 in - East 9.2 mph - N/A   Mostly Cloudy
9:00 AM 82.4 °F 88.2 °F 73.4 °F 74% 29.71 in - East 10.4 mph - N/A   Haze
9:30 AM 84.2 °F 90.9 °F 73.4 °F 70% 29.71 in - ESE 10.4 mph - N/A   Haze
10:00 AM 86.0 °F 93.4 °F 73.4 °F 66% 29.71 in - East 10.4 mph - N/A   Haze
10:30 AM 87.8 °F 95.6 °F 73.4 °F 62% 29.71 in - East 10.4 mph - N/A   Haze
11:00 AM 87.8 °F 95.6 °F 73.4 °F 62% 29.71 in - East 9.2 mph - N/A   Haze
11:30 AM 87.8 °F 95.6 °F 73.4 °F 62% 29.68 in - East 6.9 mph - N/A   Haze
12:00 PM 87.8 °F 95.6 °F 73.4 °F 62% 29.68 in - East 9.2 mph - N/A   Haze
12:30 PM 89.6 °F 98.2 °F 73.4 °F 59% 29.68 in 2.2 mi ESE 11.5 mph - N/A   Haze
1:00 PM 91.4 °F 100.1 °F 73.4 °F 55% 29.65 in 2.2 mi ESE 12.7 mph - N/A   Haze
1:30 PM 91.4 °F 100.1 °F 73.4 °F 55% 29.65 in 2.2 mi ESE 9.2 mph - N/A   Haze
2:00 PM 82.4 °F 88.2 °F 73.4 °F 74% 29.65 in 1.4 mi NNE 15.0 mph - N/A Rain Light Rain
2:30 PM 78.8 °F - 77.0 °F 94% 29.65 in 1.0 mi NNE 8.1 mph - N/A Rain Light Rain
3:00 PM 78.8 °F - 77.0 °F 94% 29.65 in 1.4 mi NNW 8.1 mph 19.6 mph N/A   Mostly Cloudy
3:30 PM 77.0 °F - 77.0 °F 100% 29.65 in 1.4 mi NNW 8.1 mph 19.6 mph N/A   Mostly Cloudy
4:00 PM 77.0 °F - 77.0 °F 100% 29.65 in 1.0 mi North 13.8 mph - N/A Rain Light Rain
5:00 PM 77.0 °F - 77.0 °F 100% 29.65 in 0.9 mi North 12.7 mph - N/A Rain Light Rain
5:30 PM 77.0 °F - 77.0 °F 100% 29.65 in 0.6 mi NNE 12.7 mph - N/A Rain Rain
6:30 PM 75.2 °F - 75.2 °F 100% 29.68 in 0.6 mi NE 11.5 mph - N/A Rain Light Rain
7:00 PM 75.2 °F - 75.2 °F 100% 29.65 in 0.9 mi NNE 9.2 mph - N/A Rain , Thunderstorm Light Thunderstorms and Rain
7:30 PM 75.2 °F - 75.2 °F 100% 29.65 in 1.1 mi NE 10.4 mph - N/A Thunderstorm Thunderstorm
8:00 PM 75.2 °F - 75.2 °F 100% 29.65 in 1.1 mi NNE 9.2 mph - N/A Thunderstorm Thunderstorm
8:30 PM 75.2 °F - 75.2 °F 100% 29.65 in 1.1 mi NNE 5.8 mph - N/A   Mostly Cloudy
9:00 PM 75.2 °F - 75.2 °F 100% 29.65 in 1.1 mi NE 6.9 mph - N/A   Mostly Cloudy
9:30 PM 75.2 °F - 73.4 °F 94% 29.68 in 1.0 mi NE 5.8 mph - N/A   Mostly Cloudy
10:30 PM 75.2 °F - 73.4 °F 94% 29.68 in 0.9 mi ENE 4.6 mph - N/A   Mostly Cloudy
11:00 PM 75.2 °F - 73.4 °F 94% 29.68 in 0.9 mi ENE 5.8 mph - N/A   Mostly Cloudy
11:30 PM 75.2 °F - 73.4 °F 94% 29.68 in 0.9 mi ENE 5.8 mph - N/A   Mostly Cloudy